Simultaneous Nadir Overpasses (SNOs) Predictions

Prediction of SNOs between NOAA-19 and TERRA Satellite Orbit:

Table of predicted SNOs for the next 14.0 days since TLE Epoch: 2/5/2012
Index Date (NOAA-19) Time (NOAA-19) NOAA-19 Lat,Lon Date (TERRA) Time (TERRA) TERRA Lat,Lon Distance(km) Time Diff (sec)
1 02/07/2012 02:36:37 -69.07, -40.08 02/07/2012 02:37:44 -69.05, -40.02 2.93 67
2 02/07/2012 03:27:34 68.88, 127.44 02/07/2012 03:27:12 68.89, 127.42 1.47 22
3 02/09/2012 07:21:26 -69.02,-111.23 02/09/2012 07:22:05 -69.01,-111.16 3.36 39
4 02/09/2012 08:12:23 68.86, 56.25 02/09/2012 08:11:33 68.84, 56.28 2.18 50
5 02/11/2012 12:06:14 -68.94, 177.69 02/11/2012 12:06:26 -68.96, 177.69 2.42 12
6 02/11/2012 12:57:08 68.63, -14.64 02/11/2012 12:55:56 68.68, -15.01 15.70 72
7 02/13/2012 16:00:03 69.23, -61.16 02/13/2012 16:01:14 69.17, -60.75 17.53 71
8 02/13/2012 16:51:03 -68.90, 106.53 02/13/2012 16:50:47 -68.90, 106.54 0.50 16
9 02/15/2012 20:44:48 69.01,-132.05 02/15/2012 20:45:37 69.00,-132.05 1.36 49
10 02/15/2012 21:35:51 -68.83, 35.43 02/15/2012 21:35:08 -68.84, 35.38 2.91 43
11 02/18/2012 01:29:36 68.95, 156.83 02/18/2012 01:29:58 68.93, 156.78 3.04 22
12 02/18/2012 02:20:40 -68.80, -35.74 02/18/2012 02:19:29 -68.78, -35.79 3.33 71




NCC Satellite Simultaneous Nadir Overpasses (SNOs) Prediction Service
